Location: Taupo
(38.6830°S, 176.0830°E)
Time: 05:37:10
(UTC+13:00)

Cosmos 292 Rocket - Pass Details

Date: 24 January 2019
Orbit: 674 x 694 km, 74.0° (Epoch: 17 October)

Event Time Altitude Azimuth Distance (km) Brightness Sun altitude
Rises 21:39:19 0° 204° (SSW) 3,065 8.3 -11.2°
Reaches altitude 10° 21:41:41 10° 209° (SSW) 2,144 7.4 -11.6°
Maximum altitude 21:46:21 52° 284° (WNW) 853 4.5 -12.3°
Drops below altitude 10° 21:51:00 10° 360° (N) 2,125 5.9 -13.0°
Enters shadow 21:51:49 - 2° (N) 2,439 6.2 -13.2°
